Time,TemperatureF,DewpointF,PressureIn,WindDirection,WindDirectionDegrees,WindSpeedMPH,WindSpeedGustMPH,Humidity,HourlyPrecipIn,Conditions,Clouds,dailyrainin,SolarRadiationWatts/m^2,SoftwareType,DateUTC
2013-05-08 00:04:00,35.4,32.7,29.92,WNW,303,0.0,5.0,90,0.01,,,0.05,0.0,meteohub,2013-05-08 06:04:00,
2013-05-08 00:09:00,35.2,32.9,29.92,WNW,303,0.0,5.0,91,0.01,,,0.05,0.0,meteohub,2013-05-08 06:09:00,
2013-05-08 00:14:00,35.1,32.7,29.92,WNW,303,0.0,4.0,91,0.01,,,0.05,0.0,meteohub,2013-05-08 06:14:00,
2013-05-08 00:19:00,34.9,32.2,29.92,WNW,303,0.0,0.0,90,0.01,,,0.05,0.0,meteohub,2013-05-08 06:19:00,
2013-05-08 00:24:00,34.7,32.0,29.92,WNW,303,2.0,2.0,90,0.01,,,0.05,0.0,meteohub,2013-05-08 06:24:00,
2013-05-08 00:30:00,34.5,31.8,29.92,WNW,303,2.0,2.0,90,0.01,,,0.05,0.0,meteohub,2013-05-08 06:30:00,
2013-05-08 00:35:00,34.3,31.6,29.92,WNW,303,5.0,6.0,90,0.01,,,0.05,0.0,meteohub,2013-05-08 06:35:00,
2013-05-08 00:40:00,33.8,31.1,29.91,WNW,303,5.0,7.0,90,0.00,,,0.05,0.0,meteohub,2013-05-08 06:40:00,
2013-05-08 00:45:00,33.4,30.7,29.91,WNW,303,6.0,7.0,90,0.00,,,0.05,0.0,meteohub,2013-05-08 06:45:00,
2013-05-08 00:50:00,32.9,30.6,29.91,WNW,303,4.0,6.0,91,0.00,,,0.05,0.0,meteohub,2013-05-08 06:50:00,
2013-05-08 00:56:00,32.9,30.6,29.91,WNW,303,0.0,6.0,91,0.00,,,0.05,0.0,meteohub,2013-05-08 06:56:00,
2013-05-08 01:01:00,32.9,30.6,29.91,WNW,303,5.0,6.0,91,0.00,,,0.05,0.0,meteohub,2013-05-08 07:01:00,
2013-05-08 01:06:00,32.9,30.6,29.91,WNW,303,0.0,8.0,91,0.00,,,0.05,0.0,meteohub,2013-05-08 07:06:00,
2013-05-08 01:11:00,32.7,30.4,29.90,WNW,303,0.0,8.0,91,0.00,,,0.05,0.0,meteohub,2013-05-08 07:11:00,
2013-05-08 01:16:00,32.7,30.4,29.90,WNW,303,0.0,8.0,91,0.00,,,0.05,0.0,meteohub,2013-05-08 07:16:00,
2013-05-08 01:22:00,32.9,30.6,29.90,WNW,303,0.0,2.0,91,0.00,,,0.05,0.0,meteohub,2013-05-08 07:22:00,
2013-05-08 01:27:00,32.9,30.6,29.90,WNW,303,4.0,7.0,91,0.00,,,0.05,0.0,meteohub,2013-05-08 07:27:00,
2013-05-08 01:32:00,32.7,30.4,29.90,WNW,303,0.0,7.0,91,0.00,,,0.05,0.0,meteohub,2013-05-08 07:32:00,
2013-05-08 01:37:00,32.5,30.2,29.90,WNW,303,0.0,5.0,91,0.00,,,0.05,0.0,meteohub,2013-05-08 07:37:00,
2013-05-08 01:42:00,32.9,30.6,29.89,WNW,303,0.0,5.0,91,0.00,,,0.05,0.0,meteohub,2013-05-08 07:42:00,
2013-05-08 01:48:00,32.9,30.6,29.89,WNW,303,2.0,5.0,91,0.00,,,0.05,0.0,meteohub,2013-05-08 07:48:00,
2013-05-08 01:53:00,32.7,30.4,29.89,WNW,303,0.0,6.0,91,0.00,,,0.05,0.0,meteohub,2013-05-08 07:53:00,
2013-05-08 01:58:00,32.5,30.2,29.90,WNW,303,0.0,6.0,91,0.00,,,0.05,0.0,meteohub,2013-05-08 07:58:00,
2013-05-08 02:03:00,32.2,29.8,29.89,WNW,303,0.0,6.0,91,0.00,,,0.05,0.0,meteohub,2013-05-08 08:03:00,
2013-05-08 02:08:00,32.0,29.7,29.89,WNW,303,0.0,1.0,91,0.00,,,0.05,0.0,meteohub,2013-05-08 08:08:00,
2013-05-08 02:13:00,31.8,29.5,29.89,WNW,303,1.0,0.0,91,0.00,,,0.05,0.0,meteohub,2013-05-08 08:13:00,
2013-05-08 02:19:00,31.8,29.8,29.89,WNW,303,0.0,1.0,92,0.00,,,0.05,0.0,meteohub,2013-05-08 08:19:00,
2013-05-08 02:24:00,31.6,29.7,29.89,WNW,303,5.0,5.0,92,0.00,,,0.05,0.0,meteohub,2013-05-08 08:24:00,
2013-05-08 02:29:00,31.6,29.7,29.89,WNW,303,4.0,6.0,92,0.00,,,0.05,0.0,meteohub,2013-05-08 08:29:00,
2013-05-08 02:34:00,31.8,30.0,29.89,WNW,303,4.0,6.0,93,0.00,,,0.05,0.0,meteohub,2013-05-08 08:34:00,
2013-05-08 02:39:00,31.6,29.7,29.89,WNW,303,5.0,6.0,92,0.00,,,0.05,0.0,meteohub,2013-05-08 08:39:00,
2013-05-08 02:45:00,31.5,29.5,29.89,WNW,303,7.0,7.0,92,0.00,,,0.05,0.0,meteohub,2013-05-08 08:45:00,
2013-05-08 02:50:00,31.5,29.5,29.89,WNW,303,5.0,8.0,92,0.00,,,0.05,0.0,meteohub,2013-05-08 08:50:00,
2013-05-08 02:55:00,31.5,29.5,29.88,WNW,303,6.0,8.0,92,0.00,,,0.05,0.0,meteohub,2013-05-08 08:55:00,
2013-05-08 03:00:00,31.5,29.5,29.88,WNW,303,5.0,8.0,92,0.00,,,0.05,0.0,meteohub,2013-05-08 09:00:00,
2013-05-08 03:05:00,31.6,29.7,29.88,WNW,303,5.0,7.0,92,0.00,,,0.05,0.0,meteohub,2013-05-08 09:05:00,
2013-05-08 03:11:00,32.2,30.2,29.88,WNW,303,5.0,7.0,92,0.00,,,0.05,0.0,meteohub,2013-05-08 09:11:00,
2013-05-08 03:16:00,32.4,30.0,29.88,WNW,303,0.0,6.0,91,0.00,,,0.05,0.0,meteohub,2013-05-08 09:16:00,
2013-05-08 03:21:00,32.4,30.0,29.89,WNW,303,0.0,6.0,91,0.00,,,0.05,0.0,meteohub,2013-05-08 09:21:00,
2013-05-08 03:26:00,32.4,29.8,29.88,WNW,303,0.0,6.0,90,0.00,,,0.05,0.0,meteohub,2013-05-08 09:26:00,
2013-05-08 03:31:00,32.5,29.7,29.88,WNW,303,1.0,4.0,89,0.00,,,0.05,0.0,meteohub,2013-05-08 09:31:00,
2013-05-08 03:36:00,32.4,29.5,29.88,WNW,303,0.0,4.0,89,0.00,,,0.05,0.0,meteohub,2013-05-08 09:36:00,
2013-05-08 03:42:00,32.4,29.5,29.88,WNW,303,4.0,4.0,89,0.00,,,0.05,0.0,meteohub,2013-05-08 09:42:00,
2013-05-08 03:47:00,32.2,29.3,29.89,WNW,303,5.0,5.0,89,0.00,,,0.05,0.0,meteohub,2013-05-08 09:47:00,
2013-05-08 03:52:00,31.8,29.3,29.88,WNW,303,4.0,7.0,90,0.00,,,0.05,0.0,meteohub,2013-05-08 09:52:00,
2013-05-08 03:57:00,31.6,29.1,29.89,WNW,303,4.0,7.0,90,0.00,,,0.05,0.0,meteohub,2013-05-08 09:57:00,
2013-05-08 04:02:00,31.8,29.3,29.89,WNW,303,5.0,7.0,90,0.00,,,0.05,0.0,meteohub,2013-05-08 10:02:00,
2013-05-08 04:08:00,32.0,29.1,29.89,WNW,303,5.0,7.0,89,0.00,,,0.05,0.0,meteohub,2013-05-08 10:08:00,
2013-05-08 04:13:00,31.8,29.3,29.89,WNW,303,6.0,6.0,90,0.00,,,0.05,0.0,meteohub,2013-05-08 10:13:00,
2013-05-08 04:18:00,31.6,29.1,29.90,WNW,303,5.0,7.0,90,0.00,,,0.05,0.0,meteohub,2013-05-08 10:18:00,
2013-05-08 04:23:00,32.0,29.5,29.90,WNW,303,6.0,7.0,90,0.00,,,0.05,0.0,meteohub,2013-05-08 10:23:00,
2013-05-08 04:28:00,32.2,29.7,29.90,WNW,303,7.0,7.0,90,0.00,,,0.05,0.0,meteohub,2013-05-08 10:28:00,
2013-05-08 04:34:00,32.2,29.7,29.90,WNW,303,6.0,8.0,90,0.00,,,0.05,0.0,meteohub,2013-05-08 10:34:00,
2013-05-08 04:39:00,32.2,29.3,29.90,WNW,303,7.0,8.0,89,0.00,,,0.05,0.0,meteohub,2013-05-08 10:39:00,
2013-05-08 04:44:00,32.7,29.5,29.90,WNW,303,1.0,8.0,88,0.00,,,0.05,0.0,meteohub,2013-05-08 10:44:00,
2013-05-08 04:49:00,32.5,29.3,29.90,WNW,303,5.0,8.0,88,0.00,,,0.05,0.0,meteohub,2013-05-08 10:49:00,
2013-05-08 04:54:00,32.5,29.3,29.90,WNW,303,5.0,7.0,88,0.00,,,0.05,0.0,meteohub,2013-05-08 10:54:00,
2013-05-08 05:00:00,32.4,29.5,29.90,WNW,303,5.0,7.0,89,0.00,,,0.05,0.0,meteohub,2013-05-08 11:00:00,
2013-05-08 05:05:00,32.4,29.5,29.90,WNW,303,6.0,7.0,89,0.00,,,0.05,0.0,meteohub,2013-05-08 11:05:00,
2013-05-08 05:10:00,32.4,29.1,29.90,WNW,303,7.0,8.0,88,0.00,,,0.05,0.0,meteohub,2013-05-08 11:10:00,
2013-05-08 05:15:00,32.4,29.1,29.90,WNW,303,7.0,8.0,88,0.00,,,0.05,0.0,meteohub,2013-05-08 11:15:00,
2013-05-08 05:20:00,32.4,28.9,29.90,WNW,303,6.0,8.0,87,0.00,,,0.05,0.0,meteohub,2013-05-08 11:20:00,
2013-05-08 05:25:00,32.5,29.1,29.90,WNW,303,6.0,8.0,87,0.00,,,0.05,0.0,meteohub,2013-05-08 11:25:00,
2013-05-08 05:31:00,32.5,28.8,29.90,WNW,303,6.0,7.0,86,0.00,,,0.05,0.0,meteohub,2013-05-08 11:31:00,
2013-05-08 05:36:00,32.5,28.8,29.90,NW,304,6.0,7.0,86,0.00,,,0.05,0.0,meteohub,2013-05-08 11:36:00,
2013-05-08 05:41:00,32.5,28.8,29.90,NW,304,6.0,7.0,86,0.00,,,0.05,0.0,meteohub,2013-05-08 11:41:00,
2013-05-08 05:46:00,32.5,28.8,29.90,NW,304,7.0,7.0,86,0.00,,,0.05,0.0,meteohub,2013-05-08 11:46:00,
2013-05-08 05:51:00,32.7,28.8,29.90,NW,304,6.0,7.0,85,0.00,,,0.05,0.0,meteohub,2013-05-08 11:51:00,
2013-05-08 05:57:00,33.1,29.1,29.91,WNW,303,6.0,7.0,85,0.00,,,0.05,0.0,meteohub,2013-05-08 11:57:00,
2013-05-08 06:02:00,33.1,28.8,29.91,WNW,303,6.0,7.0,84,0.00,,,0.05,5.0,meteohub,2013-05-08 12:02:00,
2013-05-08 06:07:00,33.1,28.8,29.91,NW,304,5.0,7.0,84,0.00,,,0.05,9.0,meteohub,2013-05-08 12:07:00,
2013-05-08 06:12:00,33.1,28.8,29.90,NW,304,6.0,8.0,84,0.00,,,0.05,11.0,meteohub,2013-05-08 12:12:00,
2013-05-08 06:17:00,33.1,28.8,29.90,WNW,303,6.0,8.0,84,0.00,,,0.05,16.0,meteohub,2013-05-08 12:17:00,
2013-05-08 06:23:00,33.1,28.8,29.90,NW,304,5.0,8.0,84,0.00,,,0.05,18.0,meteohub,2013-05-08 12:23:00,
2013-05-08 06:28:00,33.3,28.9,29.91,WNW,303,6.0,8.0,84,0.00,,,0.05,18.0,meteohub,2013-05-08 12:28:00,
2013-05-08 06:33:00,33.4,28.8,29.91,WNW,303,5.0,8.0,83,0.00,,,0.05,18.0,meteohub,2013-05-08 12:33:00,
2013-05-08 06:38:00,34.0,30.7,29.91,NW,304,5.0,8.0,88,0.00,,,0.05,21.0,meteohub,2013-05-08 12:38:00,
2013-05-08 06:43:00,34.0,29.1,29.91,NW,304,5.0,7.0,82,0.00,,,0.05,25.0,meteohub,2013-05-08 12:43:00,
2013-05-08 06:48:00,34.2,29.3,29.92,NW,304,2.0,7.0,82,0.00,,,0.05,30.0,meteohub,2013-05-08 12:48:00,
2013-05-08 06:54:00,34.2,29.5,29.92,NW,304,1.0,7.0,83,0.00,,,0.05,37.0,meteohub,2013-05-08 12:54:00,
2013-05-08 06:59:00,34.2,29.5,29.92,NW,304,2.0,7.0,83,0.00,,,0.05,40.0,meteohub,2013-05-08 12:59:00,
2013-05-08 07:04:00,34.2,29.8,29.92,NW,304,1.0,6.0,84,0.00,,,0.05,39.0,meteohub,2013-05-08 13:04:00,
2013-05-08 07:09:00,34.3,30.4,29.93,NW,304,2.0,6.0,85,0.00,,,0.05,33.0,meteohub,2013-05-08 13:09:00,
2013-05-08 07:14:00,34.2,30.4,29.93,WNW,303,1.0,6.0,86,0.00,,,0.05,42.0,meteohub,2013-05-08 13:14:00,
2013-05-08 07:20:00,34.2,30.4,29.93,NW,304,5.0,5.0,86,0.00,,,0.05,46.0,meteohub,2013-05-08 13:20:00,
2013-05-08 07:25:00,34.3,30.6,29.93,WNW,303,4.0,6.0,86,0.00,,,0.05,56.0,meteohub,2013-05-08 13:25:00,
2013-05-08 07:30:00,34.5,30.7,29.93,WNW,303,4.0,6.0,86,0.00,,,0.05,63.0,meteohub,2013-05-08 13:30:00,
2013-05-08 07:35:00,34.5,31.1,29.93,WNW,303,4.0,6.0,87,0.00,,,0.05,67.0,meteohub,2013-05-08 13:35:00,
2013-05-08 07:40:00,34.7,31.3,29.93,WNW,303,4.0,6.0,87,0.00,,,0.05,81.0,meteohub,2013-05-08 13:40:00,
2013-05-08 07:46:00,35.1,31.6,29.93,NW,304,4.0,6.0,87,0.00,,,0.05,56.0,meteohub,2013-05-08 13:46:00,
2013-05-08 07:51:00,35.1,31.6,29.93,NW,304,2.0,5.0,87,0.00,,,0.05,72.0,meteohub,2013-05-08 13:51:00,
2013-05-08 07:56:00,35.2,32.0,29.93,NW,304,2.0,5.0,88,0.00,,,0.05,60.0,meteohub,2013-05-08 13:56:00,
2013-05-08 08:01:00,35.4,32.5,29.93,WNW,303,2.0,5.0,89,0.00,,,0.05,65.0,meteohub,2013-05-08 14:01:00,
2013-05-08 08:06:00,35.8,32.9,29.93,NW,304,2.0,4.0,89,0.00,,,0.05,86.0,meteohub,2013-05-08 14:06:00,
2013-05-08 08:12:00,36.0,33.3,29.93,WNW,303,2.0,4.0,90,0.00,,,0.05,63.0,meteohub,2013-05-08 14:12:00,
2013-05-08 08:17:00,36.0,33.3,29.94,NW,304,3.0,4.0,90,0.00,,,0.05,58.0,meteohub,2013-05-08 14:17:00,
2013-05-08 08:22:00,36.1,33.3,29.94,NW,304,3.0,4.0,89,0.00,,,0.05,47.0,meteohub,2013-05-08 14:22:00,
2013-05-08 08:27:00,36.5,33.1,29.94,WNW,293,3.0,4.0,87,0.00,,,0.05,40.0,meteohub,2013-05-08 14:27:00,
2013-05-08 08:32:00,36.7,32.9,29.94,WNW,293,2.0,5.0,86,0.00,,,0.05,32.0,meteohub,2013-05-08 14:32:00,
2013-05-08 08:38:00,36.7,32.5,29.94,WNW,293,2.0,5.0,85,0.00,,,0.05,33.0,meteohub,2013-05-08 14:38:00,
2013-05-08 08:43:00,36.3,32.5,29.94,WNW,293,5.0,5.0,86,0.00,,,0.05,46.0,meteohub,2013-05-08 14:43:00,
2013-05-08 08:48:00,36.0,32.5,29.94,WNW,295,6.0,8.0,87,0.00,,,0.05,65.0,meteohub,2013-05-08 14:48:00,
2013-05-08 08:53:00,35.8,32.5,29.94,WNW,296,7.0,8.0,88,0.00,,,0.05,63.0,meteohub,2013-05-08 14:53:00,
2013-05-08 08:58:00,35.8,32.5,29.94,WNW,299,7.0,8.0,88,0.00,,,0.05,47.0,meteohub,2013-05-08 14:58:00,
2013-05-08 09:03:00,35.8,32.5,29.94,WNW,299,6.0,8.0,88,0.00,,,0.05,74.0,meteohub,2013-05-08 15:03:00,
2013-05-08 09:09:00,36.0,32.7,29.94,WNW,299,4.0,8.0,88,0.01,,,0.06,74.0,meteohub,2013-05-08 15:09:00,
2013-05-08 09:14:00,36.1,32.9,29.94,WNW,299,1.0,8.0,88,0.01,,,0.06,62.0,meteohub,2013-05-08 15:14:00,
2013-05-08 09:19:00,36.3,33.1,29.94,WNW,299,0.0,8.0,88,0.01,,,0.06,54.0,meteohub,2013-05-08 15:19:00,
2013-05-08 09:24:00,36.7,33.4,29.95,WNW,299,0.0,8.0,88,0.01,,,0.06,51.0,meteohub,2013-05-08 15:24:00,
2013-05-08 09:29:00,36.7,33.8,29.95,WNW,299,0.0,5.0,89,0.01,,,0.06,62.0,meteohub,2013-05-08 15:29:00,
2013-05-08 09:35:00,36.7,33.4,29.95,WNW,299,0.0,4.0,88,0.01,,,0.06,56.0,meteohub,2013-05-08 15:35:00,
2013-05-08 09:40:00,36.7,33.4,29.95,WNW,299,2.0,6.0,88,0.01,,,0.06,28.0,meteohub,2013-05-08 15:40:00,
2013-05-08 09:45:00,36.7,33.4,29.95,ESE,117,1.0,6.0,88,0.01,,,0.06,53.0,meteohub,2013-05-08 15:45:00,
2013-05-08 09:50:00,36.7,33.4,29.95,ESE,117,0.0,7.0,88,0.01,,,0.06,46.0,meteohub,2013-05-08 15:50:00,
2013-05-08 09:55:00,36.7,33.8,29.95,ESE,117,0.0,7.0,89,0.01,,,0.06,39.0,meteohub,2013-05-08 15:55:00,
2013-05-08 10:01:00,36.5,33.6,29.95,ESE,117,0.0,3.0,89,0.01,,,0.06,53.0,meteohub,2013-05-08 16:01:00,
2013-05-08 10:06:00,36.3,33.4,29.96,ESE,117,0.0,4.0,89,0.00,,,0.06,40.0,meteohub,2013-05-08 16:06:00,
2013-05-08 10:11:00,36.1,33.3,29.96,ESE,117,0.0,4.0,89,0.00,,,0.06,37.0,meteohub,2013-05-08 16:11:00,
2013-05-08 10:16:00,35.8,32.9,29.96,ESE,117,1.0,5.0,89,0.00,,,0.06,28.0,meteohub,2013-05-08 16:16:00,
2013-05-08 10:21:00,35.4,32.5,29.96,ESE,117,2.0,5.0,89,0.00,,,0.06,60.0,meteohub,2013-05-08 16:21:00,
2013-05-08 10:27:00,35.2,32.5,29.96,ESE,117,0.0,5.0,90,0.00,,,0.06,46.0,meteohub,2013-05-08 16:27:00,
2013-05-08 10:32:00,35.1,32.7,29.96,ESE,117,0.0,5.0,91,0.00,,,0.06,42.0,meteohub,2013-05-08 16:32:00,
2013-05-08 10:37:00,34.7,32.0,29.96,ESE,117,0.0,5.0,90,0.00,,,0.06,53.0,meteohub,2013-05-08 16:37:00,
2013-05-08 10:42:00,34.3,32.0,29.97,ESE,117,0.0,1.0,91,0.00,,,0.06,49.0,meteohub,2013-05-08 16:42:00,
2013-05-08 10:47:00,34.2,31.8,29.97,ESE,117,0.0,2.0,91,0.00,,,0.06,63.0,meteohub,2013-05-08 16:47:00,
2013-05-08 10:52:00,34.0,31.6,29.97,ESE,117,0.0,2.0,91,0.00,,,0.06,42.0,meteohub,2013-05-08 16:52:00,
2013-05-08 10:58:00,34.0,31.8,29.97,ESE,117,0.0,0.0,92,0.00,,,0.06,97.0,meteohub,2013-05-08 16:58:00,
2013-05-08 11:03:00,34.0,31.8,29.97,ESE,117,0.0,0.0,92,0.00,,,0.06,91.0,meteohub,2013-05-08 17:03:00,
2013-05-08 11:08:00,34.0,31.8,29.98,North,-999,-999.0,0.0,92,0.00,,,0.06,67.0,meteohub,2013-05-08 17:08:00,
2013-05-08 11:13:00,34.0,31.8,29.98,ESE,117,0.0,0.0,92,0.02,,,0.08,98.0,meteohub,2013-05-08 17:13:00,
2013-05-08 11:18:00,34.2,32.4,29.98,ESE,117,0.0,0.0,93,0.02,,,0.08,116.0,meteohub,2013-05-08 17:18:00,
2013-05-08 11:24:00,34.3,32.5,29.99,ESE,117,0.0,0.0,93,0.02,,,0.08,90.0,meteohub,2013-05-08 17:24:00,
2013-05-08 11:29:00,34.5,32.7,29.99,ESE,117,2.0,0.0,93,0.02,,,0.08,104.0,meteohub,2013-05-08 17:29:00,
2013-05-08 11:34:00,34.9,33.1,29.99,ESE,117,2.0,2.0,93,0.03,,,0.09,125.0,meteohub,2013-05-08 17:34:00,
2013-05-08 11:39:00,35.1,33.3,29.99,ESE,117,2.0,5.0,93,0.03,,,0.09,193.0,meteohub,2013-05-08 17:39:00,
2013-05-08 11:44:00,35.4,33.6,29.99,ESE,117,4.0,6.0,93,0.04,,,0.10,229.0,meteohub,2013-05-08 17:44:00,
2013-05-08 11:50:00,35.8,34.0,29.99,ESE,117,2.0,6.0,93,0.04,,,0.10,227.0,meteohub,2013-05-08 17:50:00,
2013-05-08 11:55:00,36.0,33.8,29.99,NNW,327,6.0,6.0,92,0.04,,,0.10,225.0,meteohub,2013-05-08 17:55:00,
2013-05-08 12:00:00,36.5,34.3,29.99,NNW,327,0.0,7.0,92,0.05,,,0.11,148.0,meteohub,2013-05-08 18:00:00,
2013-05-08 12:05:00,36.9,34.5,29.99,NNW,327,0.0,7.0,91,0.04,,,0.11,149.0,meteohub,2013-05-08 18:05:00,
2013-05-08 12:10:00,37.2,34.9,29.99,NNW,327,4.0,7.0,91,0.03,,,0.11,218.0,meteohub,2013-05-08 18:10:00,
2013-05-08 12:16:00,37.6,35.2,29.99,NNW,327,0.0,5.0,91,0.03,,,0.11,265.0,meteohub,2013-05-08 18:16:00,
2013-05-08 12:21:00,37.9,35.1,29.98,NNW,327,5.0,5.0,89,0.04,,,0.12,323.0,meteohub,2013-05-08 18:21:00,
2013-05-08 12:26:00,38.1,35.2,29.98,NNW,327,2.0,7.0,89,0.03,,,0.12,313.0,meteohub,2013-05-08 18:26:00,
2013-05-08 12:31:00,38.5,35.2,29.98,North,-999,-999.0,7.0,88,0.03,,,0.12,179.0,meteohub,2013-05-08 18:31:00,
2013-05-08 12:36:00,38.8,35.2,29.98,NW,319,2.0,7.0,87,0.03,,,0.12,95.0,meteohub,2013-05-08 18:36:00,
2013-05-08 12:42:00,38.8,35.1,29.98,NW,319,4.0,5.0,86,0.02,,,0.12,76.0,meteohub,2013-05-08 18:42:00,
2013-05-08 12:47:00,38.7,35.1,29.98,NW,319,4.0,6.0,87,0.02,,,0.12,111.0,meteohub,2013-05-08 18:47:00,
2013-05-08 12:52:00,38.5,34.3,29.98,NW,319,1.0,6.0,85,0.02,,,0.12,134.0,meteohub,2013-05-08 18:52:00,
2013-05-08 12:57:00,38.1,34.5,29.98,NW,319,1.0,6.0,87,0.02,,,0.12,197.0,meteohub,2013-05-08 18:57:00,
2013-05-08 13:02:00,38.1,34.9,29.98,NW,319,1.0,6.0,88,0.02,,,0.13,181.0,meteohub,2013-05-08 19:02:00,
2013-05-08 13:08:00,37.9,34.7,29.98,NW,319,0.0,6.0,88,0.02,,,0.13,216.0,meteohub,2013-05-08 19:08:00,
2013-05-08 13:13:00,37.9,34.7,29.98,NW,319,5.0,5.0,88,0.02,,,0.13,243.0,meteohub,2013-05-08 19:13:00,
2013-05-08 13:18:00,38.1,34.9,29.98,NW,319,0.0,5.0,88,0.01,,,0.13,188.0,meteohub,2013-05-08 19:18:00,
2013-05-08 13:23:00,38.5,35.2,29.98,NW,319,0.0,5.0,88,0.01,,,0.13,383.0,meteohub,2013-05-08 19:23:00,
2013-05-08 13:28:00,38.8,35.6,29.98,NW,319,4.0,5.0,88,0.01,,,0.13,250.0,meteohub,2013-05-08 19:28:00,
2013-05-08 13:33:00,39.0,35.4,29.98,NW,319,3.0,6.0,87,0.01,,,0.13,232.0,meteohub,2013-05-08 19:33:00,
2013-05-08 13:39:00,38.8,35.2,29.98,NW,310,5.0,6.0,87,0.01,,,0.13,234.0,meteohub,2013-05-08 19:39:00,
2013-05-08 13:44:00,38.7,35.1,29.98,WNW,300,1.0,8.0,87,0.01,,,0.13,272.0,meteohub,2013-05-08 19:44:00,
2013-05-08 13:49:00,38.5,35.2,29.99,WNW,291,8.0,10.0,88,0.01,,,0.13,183.0,meteohub,2013-05-08 19:49:00,
2013-05-08 13:54:00,38.1,34.9,29.99,WNW,292,9.0,10.0,88,0.01,,,0.13,165.0,meteohub,2013-05-08 19:54:00,
2013-05-08 13:59:00,37.6,34.0,29.99,WNW,291,0.0,10.0,87,0.01,,,0.13,120.0,meteohub,2013-05-08 19:59:00,
2013-05-08 14:05:00,37.4,34.2,29.99,WNW,291,0.0,9.0,88,0.00,,,0.13,98.0,meteohub,2013-05-08 20:05:00,
2013-05-08 14:10:00,37.4,34.2,29.99,WNW,291,0.0,6.0,88,0.01,,,0.14,88.0,meteohub,2013-05-08 20:10:00,
2013-05-08 14:15:00,37.4,34.2,29.99,WNW,291,0.0,4.0,88,0.01,,,0.14,88.0,meteohub,2013-05-08 20:15:00,
2013-05-08 14:20:00,37.0,33.8,29.99,WNW,291,1.0,4.0,88,0.01,,,0.14,160.0,meteohub,2013-05-08 20:20:00,
2013-05-08 14:25:00,37.0,33.8,29.99,WNW,291,1.0,6.0,88,0.01,,,0.14,199.0,meteohub,2013-05-08 20:25:00,
2013-05-08 14:31:00,37.0,34.2,29.98,WNW,291,4.0,7.0,89,0.01,,,0.14,244.0,meteohub,2013-05-08 20:31:00,
2013-05-08 14:36:00,37.6,34.9,29.98,WNW,291,3.0,7.0,90,0.01,,,0.14,343.0,meteohub,2013-05-08 20:36:00,
2013-05-08 14:41:00,38.1,35.2,29.99,WNW,291,3.0,7.0,89,0.01,,,0.14,306.0,meteohub,2013-05-08 20:41:00,
2013-05-08 14:46:00,39.0,35.4,29.99,WNW,291,5.0,7.0,87,0.01,,,0.14,290.0,meteohub,2013-05-08 20:46:00,
2013-05-08 14:51:00,39.2,34.7,29.99,WNW,302,7.0,7.0,84,0.01,,,0.14,120.0,meteohub,2013-05-08 20:51:00,
2013-05-08 14:57:00,39.0,33.4,29.99,NW,308,1.0,9.0,80,0.01,,,0.14,67.0,meteohub,2013-05-08 20:57:00,
2013-05-08 15:02:00,39.0,34.0,29.99,NW,308,1.0,10.0,82,0.01,,,0.14,163.0,meteohub,2013-05-08 21:02:00,
2013-05-08 15:07:00,38.8,33.4,29.99,NW,308,4.0,10.0,81,0.01,,,0.15,163.0,meteohub,2013-05-08 21:07:00,
2013-05-08 15:12:00,38.8,33.8,29.98,NW,308,2.0,5.0,82,0.01,,,0.15,197.0,meteohub,2013-05-08 21:12:00,
2013-05-08 15:17:00,38.8,34.2,29.98,NW,308,4.0,5.0,83,0.01,,,0.15,130.0,meteohub,2013-05-08 21:17:00,
2013-05-08 15:23:00,38.8,34.2,29.98,NW,308,1.0,8.0,83,0.01,,,0.15,88.0,meteohub,2013-05-08 21:23:00,
2013-05-08 15:28:00,38.8,34.7,29.98,NW,307,0.0,8.0,85,0.01,,,0.15,46.0,meteohub,2013-05-08 21:28:00,
2013-05-08 15:33:00,38.8,35.1,29.98,NW,307,4.0,8.0,86,0.01,,,0.15,62.0,meteohub,2013-05-08 21:33:00,
2013-05-08 15:38:00,37.9,33.6,29.99,NW,307,4.0,6.0,84,0.01,,,0.15,105.0,meteohub,2013-05-08 21:38:00,
2013-05-08 15:43:00,37.6,33.4,29.99,NW,307,1.0,6.0,85,0.02,,,0.16,65.0,meteohub,2013-05-08 21:43:00,
2013-05-08 15:49:00,37.4,33.8,29.99,NW,307,1.0,6.0,87,0.02,,,0.16,84.0,meteohub,2013-05-08 21:49:00,
2013-05-08 15:54:00,37.6,34.3,29.99,NW,307,1.0,2.0,88,0.02,,,0.16,114.0,meteohub,2013-05-08 21:54:00,
2013-05-08 15:59:00,37.8,34.5,29.98,NW,307,6.0,6.0,88,0.03,,,0.17,272.0,meteohub,2013-05-08 21:59:00,
2013-05-08 16:04:00,37.8,34.2,29.98,NW,307,6.0,6.0,87,0.03,,,0.17,186.0,meteohub,2013-05-08 22:04:00,
2013-05-08 16:09:00,38.1,34.5,29.98,NW,307,2.0,8.0,87,0.02,,,0.17,204.0,meteohub,2013-05-08 22:09:00,
2013-05-08 16:15:00,38.7,34.9,29.98,NW,307,8.0,8.0,86,0.03,,,0.18,153.0,meteohub,2013-05-08 22:15:00,
2013-05-08 16:20:00,38.8,34.7,29.98,NW,308,7.0,9.0,85,0.03,,,0.18,209.0,meteohub,2013-05-08 22:20:00,
2013-05-08 16:25:00,39.0,35.4,29.98,NW,308,4.0,9.0,87,0.03,,,0.18,264.0,meteohub,2013-05-08 22:25:00,
2013-05-08 16:30:00,39.6,36.0,29.98,NW,308,4.0,9.0,87,0.03,,,0.18,178.0,meteohub,2013-05-08 22:30:00,
2013-05-08 16:35:00,39.7,34.7,29.97,NW,308,1.0,6.0,82,0.03,,,0.18,104.0,meteohub,2013-05-08 22:35:00,
2013-05-08 16:40:00,39.7,35.6,29.98,NW,308,0.0,6.0,85,0.02,,,0.18,47.0,meteohub,2013-05-08 22:40:00,
2013-05-08 16:46:00,39.9,36.1,29.99,WNW,303,6.0,6.0,86,0.02,,,0.18,19.0,meteohub,2013-05-08 22:46:00,
2013-05-08 16:51:00,39.0,34.5,29.99,SE,143,4.0,14.0,84,0.02,,,0.18,21.0,meteohub,2013-05-08 22:51:00,
2013-05-08 16:56:00,38.5,34.7,30.00,SSE,147,6.0,14.0,86,0.01,,,0.18,23.0,meteohub,2013-05-08 22:56:00,
2013-05-08 17:01:00,37.8,34.0,30.00,SE,128,6.0,14.0,86,0.01,,,0.18,18.0,meteohub,2013-05-08 23:01:00,
2013-05-08 17:06:00,37.2,34.0,30.00,SE,129,5.0,13.0,88,0.00,,,0.18,12.0,meteohub,2013-05-08 23:06:00,
2013-05-08 17:12:00,36.9,33.6,30.01,SE,126,5.0,13.0,88,0.01,,,0.19,14.0,meteohub,2013-05-08 23:12:00,
2013-05-08 17:17:00,36.1,32.9,30.02,SE,125,2.0,12.0,88,0.02,,,0.20,16.0,meteohub,2013-05-08 23:17:00,
2013-05-08 17:22:00,35.6,32.7,30.02,SSE,158,2.0,13.0,89,0.02,,,0.20,18.0,meteohub,2013-05-08 23:22:00,
2013-05-08 17:27:00,35.1,32.4,30.03,SSE,149,2.0,13.0,90,0.02,,,0.20,16.0,meteohub,2013-05-08 23:27:00,
2013-05-08 17:32:00,34.3,31.6,30.03,SE,137,0.0,10.0,90,0.02,,,0.20,16.0,meteohub,2013-05-08 23:32:00,
2013-05-08 17:38:00,34.0,31.6,30.03,SE,137,2.0,7.0,91,0.02,,,0.20,16.0,meteohub,2013-05-08 23:38:00,
2013-05-08 17:43:00,33.4,31.1,30.03,SE,126,3.0,7.0,91,0.02,,,0.20,16.0,meteohub,2013-05-08 23:43:00,
2013-05-08 17:48:00,33.3,31.1,30.04,SE,126,1.0,8.0,92,0.02,,,0.20,18.0,meteohub,2013-05-08 23:48:00,
2013-05-08 17:53:00,33.1,31.1,30.04,SE,126,2.0,8.0,92,0.02,,,0.20,14.0,meteohub,2013-05-08 23:53:00,
2013-05-08 17:58:00,32.9,31.1,30.04,SE,125,2.0,8.0,93,0.02,,,0.20,14.0,meteohub,2013-05-08 23:58:00,
2013-05-08 18:04:00,32.7,30.9,30.04,ESE,121,0.0,5.0,93,0.02,,,0.20,11.0,meteohub,2013-05-09 00:04:00,
2013-05-08 18:09:00,32.7,30.9,30.04,ESE,121,2.0,5.0,93,0.01,,,0.00,7.0,meteohub,2013-05-09 00:09:00,
2013-05-08 18:14:00,32.5,30.7,30.05,ESE,123,2.0,6.0,93,0.01,,,0.00,7.0,meteohub,2013-05-09 00:14:00,
2013-05-08 18:19:00,32.5,30.9,30.05,ESE,123,2.0,9.0,94,0.00,,,0.00,5.0,meteohub,2013-05-09 00:19:00,
2013-05-08 18:24:00,32.5,30.9,30.05,ESE,123,0.0,9.0,94,0.00,,,0.00,5.0,meteohub,2013-05-09 00:24:00,
2013-05-08 18:30:00,32.5,30.9,30.05,ESE,123,0.0,9.0,94,0.00,,,0.00,0.0,meteohub,2013-05-09 00:30:00,
2013-05-08 18:35:00,32.4,30.7,30.05,ESE,123,2.0,2.0,94,0.00,,,0.00,5.0,meteohub,2013-05-09 00:35:00,
2013-05-08 18:40:00,32.4,30.7,30.05,ESE,122,1.0,3.0,94,0.00,,,0.00,5.0,meteohub,2013-05-09 00:40:00,
2013-05-08 18:45:00,32.5,30.9,30.05,East,79,2.0,5.0,94,0.00,,,0.00,5.0,meteohub,2013-05-09 00:45:00,
2013-05-08 20:41:00,32.7,31.5,30.10,East,96,1.0,4.0,95,0.00,,,0.00,0.0,meteohub,2013-05-09 02:41:00,
2013-05-08 20:46:00,32.7,31.5,30.10,East,96,4.0,4.0,95,0.00,,,0.00,0.0,meteohub,2013-05-09 02:46:00,
2013-05-08 20:51:00,32.7,31.5,30.10,East,96,0.0,6.0,95,0.00,,,0.00,0.0,meteohub,2013-05-09 02:51:00,
2013-05-08 20:57:00,32.7,31.5,30.10,East,82,0.0,7.0,95,0.00,,,0.00,0.0,meteohub,2013-05-09 02:57:00,
2013-05-08 21:02:00,32.7,31.5,30.10,East,83,0.0,7.0,95,0.00,,,0.00,0.0,meteohub,2013-05-09 03:02:00,
2013-05-08 21:07:00,32.5,31.3,30.11,ESE,109,4.0,7.0,95,0.00,,,0.00,0.0,meteohub,2013-05-09 03:07:00,
2013-05-08 21:12:00,32.5,31.3,30.11,SE,127,0.0,6.0,95,0.00,,,0.00,0.0,meteohub,2013-05-09 03:12:00,
2013-05-08 21:17:00,32.5,31.3,30.11,ESE,111,2.0,7.0,95,0.00,,,0.00,0.0,meteohub,2013-05-09 03:17:00,
2013-05-08 21:22:00,32.4,31.1,30.11,ESE,109,4.0,7.0,95,0.00,,,0.00,0.0,meteohub,2013-05-09 03:22:00,